Time,TemperatureF,DewpointF,PressureIn,WindDirection,WindDirectionDegrees,WindSpeedMPH,WindSpeedGustMPH,Humidity,HourlyPrecipIn,Conditions,Clouds,dailyrainin,SoftwareType,DateUTC
2013-09-16 08:54:00,56.7,53.0,30.09,NNW,334,0.0,-999.0,87,-99.99,,,0.00,weatherlink.com 1.10,2013-09-16 12:54:00,
2013-09-16 09:06:00,56.8,53.0,30.10,NNW,334,0.0,-999.0,87,-99.99,,,0.00,weatherlink.com 1.10,2013-09-16 13:06:00,
2013-09-16 09:21:00,56.7,53.0,30.10,NNW,334,0.0,-999.0,87,-99.99,,,0.00,weatherlink.com 1.10,2013-09-16 13:21:00,
2013-09-16 09:37:00,56.7,53.0,30.10,NNW,334,0.0,-999.0,87,-99.99,,,0.00,weatherlink.com 1.10,2013-09-16 13:37:00,
2013-09-16 09:52:00,57.1,53.0,30.11,NNW,334,0.0,-999.0,87,-99.99,,,0.00,weatherlink.com 1.10,2013-09-16 13:52:00,
2013-09-16 10:07:00,57.5,54.0,30.10,NNW,334,0.0,-999.0,87,-99.99,,,0.00,weatherlink.com 1.10,2013-09-16 14:07:00,
2013-09-16 10:22:00,57.6,54.0,30.11,NNW,334,0.0,-999.0,87,-99.99,,,0.00,weatherlink.com 1.10,2013-09-16 14:22:00,
2013-09-16 10:37:00,57.8,54.0,30.11,NNW,334,0.0,-999.0,87,-99.99,,,0.00,weatherlink.com 1.10,2013-09-16 14:37:00,
2013-09-16 10:52:00,58.4,55.0,30.11,NNW,334,0.0,-999.0,87,-99.99,,,0.00,weatherlink.com 1.10,2013-09-16 14:52:00,
2013-09-16 11:07:00,60.0,56.0,30.10,East,80,0.0,-999.0,86,-99.99,,,0.00,weatherlink.com 1.10,2013-09-16 15:07:00,
2013-09-16 11:22:00,61.2,56.0,30.10,NNE,12,0.0,-999.0,82,-99.99,,,0.00,weatherlink.com 1.10,2013-09-16 15:22:00,
2013-09-16 11:37:00,61.9,56.0,30.10,WNW,294,0.0,-999.0,80,-99.99,,,0.00,weatherlink.com 1.10,2013-09-16 15:37:00,
2013-09-16 11:52:00,63.1,57.0,30.09,ENE,59,2.0,-999.0,79,-99.99,,,0.00,weatherlink.com 1.10,2013-09-16 15:52:00,
2013-09-16 12:08:00,64.1,56.0,30.09,ENE,65,0.0,-999.0,75,-99.99,,,0.00,weatherlink.com 1.10,2013-09-16 16:08:00,
2013-09-16 12:23:00,65.3,56.0,30.09,ENE,60,1.0,-999.0,71,-99.99,,,0.00,weatherlink.com 1.10,2013-09-16 16:23:00,
2013-09-16 12:38:00,66.1,56.0,30.08,ENE,59,0.0,-999.0,69,-99.99,,,0.00,weatherlink.com 1.10,2013-09-16 16:38:00,
2013-09-16 12:53:00,66.8,54.0,30.09,NW,318,6.0,-999.0,64,-99.99,,,0.00,weatherlink.com 1.10,2013-09-16 16:53:00,
2013-09-16 13:08:00,66.0,54.0,30.08,NW,319,2.0,-999.0,65,-99.99,,,0.00,weatherlink.com 1.10,2013-09-16 17:08:00,
2013-09-16 13:23:00,65.6,54.0,30.08,West,276,2.0,-999.0,66,-99.99,,,0.00,weatherlink.com 1.10,2013-09-16 17:23:00,
2013-09-16 13:38:00,66.7,55.0,30.08,NNE,19,0.0,-999.0,66,-99.99,,,0.00,weatherlink.com 1.10,2013-09-16 17:38:00,
2013-09-16 13:53:00,67.0,54.0,30.08,North,360,0.0,-999.0,64,-99.99,,,0.01,weatherlink.com 1.10,2013-09-16 17:53:00,
2013-09-16 14:08:00,66.4,54.0,30.08,NNW,339,0.0,-999.0,64,-99.99,,,0.01,weatherlink.com 1.10,2013-09-16 18:08:00,
2013-09-16 14:23:00,66.5,54.0,30.08,North,355,0.0,-999.0,65,-99.99,,,0.01,weatherlink.com 1.10,2013-09-16 18:23:00,
2013-09-16 14:39:00,66.4,54.0,30.08,NNW,340,0.0,-999.0,64,-99.99,,,0.01,weatherlink.com 1.10,2013-09-16 18:39:00,
2013-09-16 14:54:00,66.9,54.0,30.07,West,275,0.0,-999.0,64,-99.99,,,0.01,weatherlink.com 1.10,2013-09-16 18:54:00,
2013-09-16 15:09:00,66.5,55.0,30.07,NNE,19,0.0,-999.0,67,-99.99,,,0.01,weatherlink.com 1.10,2013-09-16 19:09:00,
2013-09-16 15:24:00,66.2,55.0,30.08,NNE,19,0.0,-999.0,68,-99.99,,,0.01,weatherlink.com 1.10,2013-09-16 19:24:00,
2013-09-16 15:39:00,65.7,55.0,30.08,North,355,1.0,-999.0,68,-99.99,,,0.01,weatherlink.com 1.10,2013-09-16 19:39:00,
2013-09-16 15:54:00,65.0,55.0,30.09,NNW,338,0.0,-999.0,69,-99.99,,,0.01,weatherlink.com 1.10,2013-09-16 19:54:00,
2013-09-16 16:09:00,64.7,55.0,30.09,NNW,338,0.0,-999.0,72,-99.99,,,0.01,weatherlink.com 1.10,2013-09-16 20:09:00,
2013-09-16 16:24:00,64.8,55.0,30.09,NNW,334,0.0,-999.0,71,-99.99,,,0.01,weatherlink.com 1.10,2013-09-16 20:24:00,
2013-09-16 16:39:00,65.0,55.0,30.09,North,355,2.0,-999.0,69,-99.99,,,0.01,weatherlink.com 1.10,2013-09-16 20:39:00,
2013-09-16 16:54:00,64.7,55.0,30.09,NE,43,0.0,-999.0,71,-99.99,,,0.01,weatherlink.com 1.10,2013-09-16 20:54:00,
2013-09-16 17:09:00,64.3,55.0,30.10,NNW,332,0.0,-999.0,71,-99.99,,,0.01,weatherlink.com 1.10,2013-09-16 21:09:00,
2013-09-16 17:24:00,64.1,55.0,30.10,NNW,338,0.0,-999.0,73,-99.99,,,0.01,weatherlink.com 1.10,2013-09-16 21:24:00,
2013-09-16 17:39:00,63.9,55.0,30.11,NNW,339,0.0,-999.0,73,-99.99,,,0.01,weatherlink.com 1.10,2013-09-16 21:39:00,
2013-09-16 17:55:00,63.8,55.0,30.11,NNW,339,0.0,-999.0,74,-99.99,,,0.01,weatherlink.com 1.10,2013-09-16 21:55:00,
2013-09-16 18:10:00,63.6,55.0,30.11,NNW,339,0.0,-999.0,74,-99.99,,,0.01,weatherlink.com 1.10,2013-09-16 22:10:00,
2013-09-16 18:25:00,63.3,56.0,30.12,NNW,339,0.0,-999.0,76,-99.99,,,0.01,weatherlink.com 1.10,2013-09-16 22:25:00,
2013-09-16 18:40:00,63.0,55.0,30.12,NNW,339,0.0,-999.0,75,-99.99,,,0.01,weatherlink.com 1.10,2013-09-16 22:40:00,
2013-09-16 18:55:00,62.5,55.0,30.12,NNW,339,0.0,-999.0,75,-99.99,,,0.01,weatherlink.com 1.10,2013-09-16 22:55:00,
2013-09-16 19:10:00,62.0,54.0,30.13,NNW,339,0.0,-999.0,76,-99.99,,,0.01,weatherlink.com 1.10,2013-09-16 23:10:00,
2013-09-16 19:25:00,61.6,54.0,30.14,NNW,339,0.0,-999.0,77,-99.99,,,0.01,weatherlink.com 1.10,2013-09-16 23:25:00,
2013-09-16 19:40:00,61.0,54.0,30.14,NNW,339,0.0,-999.0,79,-99.99,,,0.01,weatherlink.com 1.10,2013-09-16 23:40:00,
2013-09-16 19:55:00,60.5,54.0,30.15,NNW,339,0.0,-999.0,80,-99.99,,,0.01,weatherlink.com 1.10,2013-09-16 23:55:00,
2013-09-16 20:10:00,59.9,54.0,30.15,NNW,338,1.0,-999.0,81,-99.99,,,0.01,weatherlink.com 1.10,2013-09-17 00:10:00,
2013-09-16 20:25:00,60.0,54.0,30.17,NNW,344,5.0,-999.0,80,-99.99,,,0.01,weatherlink.com 1.10,2013-09-17 00:25:00,
2013-09-16 20:40:00,59.7,54.0,30.18,North,355,5.0,-999.0,80,-99.99,,,0.01,weatherlink.com 1.10,2013-09-17 00:40:00,
2013-09-16 20:56:00,59.2,53.0,30.18,North,360,0.0,-999.0,80,-99.99,,,0.01,weatherlink.com 1.10,2013-09-17 00:56:00,
2013-09-16 21:11:00,58.8,53.0,30.19,North,355,0.0,-999.0,81,-99.99,,,0.01,weatherlink.com 1.10,2013-09-17 01:11:00,